Check out our new BloomSky Weather System.

Active alerts


No alerts


Thunder radar  blitzortung!


Rain radar more information rain snow radar


Visit our other weather sites:

Template documentation
and downloads

And another site



Weather Underground History page Text

Daily Summary for August 30, 2017 Units:  English    Metric   Both
« Previous Day
Next Day »
Daily Weekly Monthly Yearly Custom
  High: Low: Average:
Temperature: TemperatureF °F 72.1 °F 78.1 °F
Dew Point: DewpointF °F 68.7 °F 70.5 °F
Humidity: Humidity % 63 % 78 %
Wind Speed: WindSpeedMPH mph 0.0 mph 5.5 mph
Wind Gust: WindSpeedGustMPH mph - -
Wind:- - WNW
Pressure: PressureIn in 29.69 in -
Precipitation: 0.00 in    
Historical Graphs
 
 
Tabular Data for August 30, 2017
Time Temperature Dew Point Pressure Wind Wind Speed Wind Gust Humidity Rainfall Rate (Hourly)
TemperatureF °F DewpointF °F PressureIn in Calm     Humidity % HourlyPrecipIn in
00:00 73.6 °F 70.5 °F 29.73 in NW 8.0 mph 15.0 mph 90 % 0.00 in
00:05 73.6 °F 70.5 °F 29.73 in WNW 7.0 mph 15.0 mph 90 % 0.00 in
00:10 73.6 °F 70.5 °F 29.73 in NNW 9.0 mph 15.0 mph 90 % 0.00 in
00:20 73.6 °F 70.5 °F 29.73 in WNW 6.0 mph 14.0 mph 90 % 0.00 in
00:25 73.6 °F 70.5 °F 29.73 in NNW 8.0 mph 14.0 mph 90 % 0.00 in
00:30 73.6 °F 70.5 °F 29.73 in NW 9.0 mph 14.0 mph 90 % 0.00 in
00:35 73.6 °F 70.5 °F 29.73 in NW 6.0 mph 14.0 mph 90 % 0.00 in
00:40 73.4 °F 70.3 °F 29.73 in NW 6.0 mph 14.0 mph 90 % 0.00 in
00:45 73.2 °F 70.2 °F 29.73 in NW 7.0 mph 14.0 mph 90 % 0.00 in
00:50 73.2 °F 70.2 °F 29.72 in NW 4.0 mph 13.0 mph 90 % 0.00 in
00:51 73.2 °F 70.2 °F 29.72 in NW 6.0 mph 13.0 mph 90 % 0.00 in
00:56 73.2 °F 70.5 °F 29.72 in NNW 5.0 mph 14.0 mph 91 % 0.00 in
01:01 73.2 °F 70.5 °F 29.72 in NW 12.0 mph 14.0 mph 91 % 0.00 in
01:02 73.2 °F 70.5 °F 29.72 in WNW 4.0 mph 14.0 mph 91 % 0.00 in
01:07 73.2 °F 70.5 °F 29.72 in NW 8.0 mph 14.0 mph 91 % 0.00 in
01:17 73.2 °F 70.5 °F 29.71 in WNW 8.0 mph 18.0 mph 91 % 0.00 in
01:22 73.2 °F 70.5 °F 29.71 in West 9.0 mph 18.0 mph 91 % 0.00 in
01:27 73.2 °F 70.5 °F 29.71 in WNW 4.0 mph 15.0 mph 91 % 0.00 in
01:37 73.2 °F 70.5 °F 29.70 in WNW 4.0 mph 12.0 mph 91 % 0.00 in
01:42 73.2 °F 70.5 °F 29.70 in NW 9.0 mph 12.0 mph 91 % 0.00 in
01:47 73.2 °F 70.5 °F 29.70 in WNW 8.0 mph 15.0 mph 91 % 0.00 in
01:52 73.4 °F 70.3 °F 29.70 in SW 3.0 mph 15.0 mph 90 % 0.00 in
01:57 73.6 °F 70.5 °F 29.70 in NNE 9.0 mph 15.0 mph 90 % 0.00 in
02:02 73.6 °F 70.5 °F 29.70 in NNW 7.0 mph 16.0 mph 90 % 0.00 in
02:07 73.6 °F 70.5 °F 29.70 in WNW 7.0 mph 16.0 mph 90 % 0.00 in
02:12 73.6 °F 70.5 °F 29.70 in NNW 5.0 mph 16.0 mph 90 % 0.00 in
02:17 73.6 °F 70.5 °F 29.70 in NW 7.0 mph 13.0 mph 90 % 0.00 in
02:23 73.6 °F 70.5 °F 29.70 in NW 4.0 mph 13.0 mph 90 % 0.00 in
02:28 73.6 °F 70.5 °F 29.70 in NW 7.0 mph 17.0 mph 90 % 0.00 in
02:33 73.8 °F 70.7 °F 29.69 in NW 5.0 mph 17.0 mph 90 % 0.00 in
02:38 73.8 °F 70.7 °F 29.69 in NW 3.0 mph 17.0 mph 90 % 0.00 in
02:43 73.6 °F 70.5 °F 29.69 in SW 8.0 mph 14.0 mph 90 % 0.00 in
02:48 73.6 °F 70.5 °F 29.69 in NNW 4.0 mph 14.0 mph 90 % 0.00 in
02:53 73.4 °F 70.3 °F 29.69 in NW 6.0 mph 16.0 mph 90 % 0.00 in
02:58 73.2 °F 70.2 °F 29.69 in WNW 12.0 mph 16.0 mph 90 % 0.00 in
03:03 73.2 °F 70.2 °F 29.69 in NW 4.0 mph 16.0 mph 90 % 0.00 in
03:08 73.0 °F 70.3 °F 29.69 in WNW 3.0 mph 13.0 mph 91 % 0.00 in
03:13 72.9 °F 70.2 °F 29.69 in NW 4.0 mph 12.0 mph 91 % 0.00 in
03:18 73.0 °F 70.3 °F 29.69 in NNW 10.0 mph 11.0 mph 91 % 0.00 in
03:28 73.0 °F 70.3 °F 29.70 in NW 4.0 mph 14.0 mph 91 % 0.00 in
03:33 73.0 °F 70.3 °F 29.69 in NW 6.0 mph 14.0 mph 91 % 0.00 in
03:38 73.0 °F 70.3 °F 29.70 in West 3.0 mph 12.0 mph 91 % 0.00 in
03:43 73.0 °F 70.3 °F 29.70 in NNW 2.0 mph 12.0 mph 91 % 0.00 in
03:48 73.0 °F 70.3 °F 29.69 in WNW 4.0 mph 12.0 mph 91 % 0.00 in
03:53 73.0 °F 70.3 °F 29.69 in NNW 5.0 mph 12.0 mph 91 % 0.00 in
03:58 73.0 °F 70.3 °F 29.69 in WNW 6.0 mph 11.0 mph 91 % 0.00 in
04:03 72.9 °F 70.2 °F 29.69 in West 2.0 mph 11.0 mph 91 % 0.00 in
04:08 72.9 °F 70.2 °F 29.69 in WNW 2.0 mph 9.0 mph 91 % 0.00 in
04:13 72.9 °F 70.2 °F 29.69 in WNW 5.0 mph 9.0 mph 91 % 0.00 in
04:18 72.9 °F 70.2 °F 29.69 in WNW 1.0 mph 9.0 mph 91 % 0.00 in
04:23 72.7 °F 70.0 °F 29.69 in NNW 7.0 mph 8.0 mph 91 % 0.00 in
04:28 72.7 °F 70.0 °F 29.69 in NW 7.0 mph 10.0 mph 91 % 0.00 in
04:29 72.7 °F 70.0 °F 29.69 in NW 5.0 mph 10.0 mph 91 % 0.00 in
04:34 72.7 °F 70.0 °F 29.69 in West 2.0 mph 10.0 mph 91 % 0.00 in
04:39 72.7 °F 70.0 °F 29.69 in West 2.0 mph 10.0 mph 91 % 0.00 in
04:44 72.7 °F 70.0 °F 29.69 in NW 6.0 mph 9.0 mph 91 % 0.00 in
04:49 72.7 °F 70.0 °F 29.69 in SW 4.0 mph 10.0 mph 91 % 0.00 in
04:54 72.7 °F 70.0 °F 29.70 in NNW 2.0 mph 10.0 mph 91 % 0.00 in
04:59 72.7 °F 70.0 °F 29.70 in WNW 4.0 mph 10.0 mph 91 % 0.00 in
05:04 72.9 °F 70.2 °F 29.70 in NNW 2.0 mph 9.0 mph 91 % 0.00 in
05:09 72.9 °F 69.8 °F 29.70 in SW 5.0 mph 9.0 mph 90 % 0.00 in
05:14 72.9 °F 69.8 °F 29.70 in NNW 4.0 mph 9.0 mph 90 % 0.00 in
05:17 72.9 °F 69.8 °F 29.70 in NW 5.0 mph 8.0 mph 90 % 0.00 in
05:22 73.0 °F 70.0 °F 29.70 in NNW 5.0 mph 8.0 mph 90 % 0.00 in
05:27 73.0 °F 69.6 °F 29.70 in WNW 3.0 mph 11.0 mph 89 % 0.00 in
05:32 73.0 °F 69.6 °F 29.70 in NW 1.0 mph 11.0 mph 89 % 0.00 in
05:37 73.0 °F 69.6 °F 29.70 in NW 2.0 mph 11.0 mph 89 % 0.00 in
05:42 72.9 °F 69.8 °F 29.70 in Calm   11.0 mph 90 % 0.00 in
05:47 72.7 °F 69.6 °F 29.70 in NNW 4.0 mph 6.0 mph 90 % 0.00 in
05:52 72.7 °F 69.6 °F 29.70 in North 5.0 mph 9.0 mph 90 % 0.00 in
05:57 72.7 °F 69.6 °F 29.70 in NW 3.0 mph 12.0 mph 90 % 0.00 in
06:02 72.5 °F 69.4 °F 29.70 in NW 6.0 mph 12.0 mph 90 % 0.00 in
06:07 72.3 °F 69.3 °F 29.70 in NNW 2.0 mph 12.0 mph 90 % 0.00 in
06:12 72.3 °F 69.3 °F 29.70 in WNW 5.0 mph 12.0 mph 90 % 0.00 in
06:17 72.1 °F 69.1 °F 29.70 in West 9.0 mph 12.0 mph 90 % 0.00 in
06:22 72.1 °F 69.1 °F 29.70 in ENE 4.0 mph 10.0 mph 90 % 0.00 in
06:27 72.1 °F 69.1 °F 29.70 in West 2.0 mph 10.0 mph 90 % 0.00 in
06:32 72.1 °F 69.1 °F 29.70 in West 10.0 mph 11.0 mph 90 % 0.00 in
06:37 72.3 °F 68.9 °F 29.70 in NNW 6.0 mph 13.0 mph 89 % 0.00 in
06:42 72.3 °F 68.9 °F 29.70 in West 4.0 mph 13.0 mph 89 % 0.00 in
06:47 72.3 °F 68.9 °F 29.70 in NW 4.0 mph 13.0 mph 89 % 0.00 in
06:52 72.3 °F 68.9 °F 29.70 in West 11.0 mph 12.0 mph 89 % 0.00 in
06:57 72.3 °F 68.9 °F 29.70 in NNW 9.0 mph 17.0 mph 89 % 0.00 in
07:02 72.5 °F 69.1 °F 29.70 in NW 7.0 mph 17.0 mph 89 % 0.00 in
07:07 72.7 °F 68.9 °F 29.70 in NW 5.0 mph 17.0 mph 88 % 0.00 in
07:12 72.7 °F 68.9 °F 29.70 in NNW 4.0 mph 11.0 mph 88 % 0.00 in
07:15 72.7 °F 68.9 °F 29.71 in North 7.0 mph 13.0 mph 88 % 0.00 in
07:20 72.7 °F 68.9 °F 29.71 in SW 2.0 mph 13.0 mph 88 % 0.00 in
07:30 72.3 °F 68.9 °F 29.71 in North 8.0 mph 12.0 mph 89 % 0.00 in
07:40 72.5 °F 68.7 °F 29.72 in WNW 3.0 mph 12.0 mph 88 % 0.00 in
07:45 72.5 °F 69.1 °F 29.72 in NNW 9.0 mph 12.0 mph 89 % 0.00 in
07:47 72.5 °F 69.1 °F 29.72 in NW 7.0 mph 12.0 mph 89 % 0.00 in
07:52 72.5 °F 68.7 °F 29.72 in NNW 7.0 mph 12.0 mph 88 % 0.00 in
07:57 72.5 °F 69.1 °F 29.72 in WNW 8.0 mph 12.0 mph 89 % 0.00 in
08:02 72.5 °F 69.1 °F 29.72 in WSW 3.0 mph 12.0 mph 89 % 0.00 in
08:05 72.5 °F 68.7 °F 29.73 in NW 8.0 mph 10.0 mph 88 % 0.00 in
08:10 72.7 °F 68.9 °F 29.73 in WSW 8.0 mph 12.0 mph 88 % 0.00 in
08:15 72.9 °F 69.1 °F 29.73 in NW 5.0 mph 12.0 mph 88 % 0.00 in
08:20 72.9 °F 69.1 °F 29.73 in NW 4.0 mph 14.0 mph 88 % 0.00 in
08:25 73.0 °F 69.3 °F 29.73 in NNW 3.0 mph 14.0 mph 88 % 0.00 in
08:30 73.0 °F 69.3 °F 29.73 in NW 5.0 mph 14.0 mph 88 % 0.00 in
08:35 73.2 °F 69.1 °F 29.74 in NW 6.0 mph 13.0 mph 87 % 0.00 in
08:40 73.4 °F 69.3 °F 29.74 in North 10.0 mph 11.0 mph 87 % 0.00 in
08:45 73.6 °F 69.4 °F 29.74 in NW 3.0 mph 11.0 mph 87 % 0.00 in
08:50 73.6 °F 69.4 °F 29.74 in North 8.0 mph 11.0 mph 87 % 0.00 in
08:55 73.8 °F 69.3 °F 29.74 in NW 5.0 mph 11.0 mph 86 % 0.00 in
09:00 73.9 °F 69.4 °F 29.75 in NW 8.0 mph 16.0 mph 86 % 0.00 in
09:05 74.1 °F 69.6 °F 29.74 in West 3.0 mph 16.0 mph 86 % 0.00 in
09:10 74.5 °F 69.6 °F 29.75 in North 5.0 mph 16.0 mph 85 % 0.00 in
09:15 74.5 °F 69.6 °F 29.75 in WNW 7.0 mph 17.0 mph 85 % 0.00 in
09:20 74.7 °F 69.8 °F 29.75 in WNW 5.0 mph 17.0 mph 85 % 0.00 in
09:25 74.8 °F 69.6 °F 29.75 in NNW 10.0 mph 17.0 mph 84 % 0.00 in
09:30 75.0 °F 69.8 °F 29.75 in NNW 4.0 mph 14.0 mph 84 % 0.00 in
09:35 75.2 °F 70.0 °F 29.75 in WNW 5.0 mph 14.0 mph 84 % 0.00 in
09:41 75.6 °F 70.0 °F 29.75 in WNW 9.0 mph 14.0 mph 83 % 0.00 in
09:46 75.7 °F 70.2 °F 29.75 in NW 7.0 mph 18.0 mph 83 % 0.00 in
09:51 76.1 °F 70.9 °F 29.75 in NW 6.0 mph 18.0 mph 84 % 0.00 in
09:56 76.3 °F 70.3 °F 29.75 in NW 11.0 mph 18.0 mph 82 % 0.00 in
10:01 76.6 °F 70.7 °F 29.75 in NW 7.0 mph 17.0 mph 82 % 0.00 in
10:06 76.8 °F 70.5 °F 29.75 in WNW 4.0 mph 17.0 mph 81 % 0.00 in
10:11 76.8 °F 70.5 °F 29.75 in NW 7.0 mph 17.0 mph 81 % 0.00 in
10:16 77.0 °F 71.1 °F 29.75 in SSW 7.0 mph 14.0 mph 82 % 0.00 in
10:21 77.2 °F 70.9 °F 29.75 in NW 5.0 mph 15.0 mph 81 % 0.00 in
10:26 77.5 °F 70.9 °F 29.75 in NW 5.0 mph 15.0 mph 80 % 0.00 in
10:31 77.5 °F 71.2 °F 29.75 in NW 8.0 mph 15.0 mph 81 % 0.00 in
10:36 77.9 °F 71.2 °F 29.75 in WNW 10.0 mph 16.0 mph 80 % 0.00 in
10:41 78.1 °F 71.1 °F 29.75 in WNW 7.0 mph 16.0 mph 79 % 0.00 in
10:46 78.4 °F 71.4 °F 29.76 in NW 8.0 mph 16.0 mph 79 % 0.00 in
10:51 78.3 °F 70.5 °F 29.76 in NNW 8.0 mph 16.0 mph 77 % 0.00 in
10:56 78.4 °F 71.4 °F 29.76 in NNW 8.0 mph 20.0 mph 79 % 0.00 in
11:01 78.6 °F 70.9 °F 29.77 in NW 9.0 mph 20.0 mph 77 % 0.00 in
11:06 78.6 °F 70.9 °F 29.76 in WNW 5.0 mph 20.0 mph 77 % 0.00 in
11:11 78.8 °F 71.4 °F 29.76 in NNW 11.0 mph 20.0 mph 78 % 0.00 in
11:16 79.3 °F 71.1 °F 29.76 in NNW 4.0 mph 20.0 mph 76 % 0.00 in
11:21 79.5 °F 71.2 °F 29.76 in NE 10.0 mph 16.0 mph 76 % 0.00 in
11:26 79.9 °F 71.6 °F 29.76 in WSW 10.0 mph 16.0 mph 76 % 0.00 in
11:31 80.1 °F 71.4 °F 29.77 in NNW 9.0 mph 17.0 mph 75 % 0.00 in
11:36 80.4 °F 71.8 °F 29.77 in NNW 9.0 mph 17.0 mph 75 % 0.00 in
11:41 81.0 °F 72.0 °F 29.77 in NNW 11.0 mph 17.0 mph 74 % 0.00 in
11:46 80.8 °F 71.2 °F 29.77 in WNW 10.0 mph 18.0 mph 73 % 0.00 in
11:51 81.0 °F 72.3 °F 29.77 in NW 6.0 mph 21.0 mph 75 % 0.00 in
11:56 81.3 °F 71.8 °F 29.77 in NW 7.0 mph 22.0 mph 73 % 0.00 in
12:01 81.5 °F 72.0 °F 29.77 in NNW 5.0 mph 22.0 mph 73 % 0.00 in
12:06 81.5 °F 72.0 °F 29.77 in NW 10.0 mph 22.0 mph 73 % 0.00 in
12:11 81.9 °F 72.3 °F 29.77 in NNW 10.0 mph 17.0 mph 73 % 0.00 in
12:16 81.9 °F 72.0 °F 29.77 in WNW 11.0 mph 21.0 mph 72 % 0.00 in
12:21 81.7 °F 71.8 °F 29.77 in NNW 7.0 mph 21.0 mph 72 % 0.00 in
12:26 81.7 °F 72.1 °F 29.78 in NW 6.0 mph 21.0 mph 73 % 0.00 in
12:31 82.2 °F 73.0 °F 29.78 in North 8.0 mph 19.0 mph 74 % 0.00 in
12:36 82.6 °F 72.1 °F 29.77 in NW 10.0 mph 19.0 mph 71 % 0.00 in
12:41 82.8 °F 72.3 °F 29.77 in NNW 8.0 mph 19.0 mph 71 % 0.00 in
12:46 82.8 °F 72.3 °F 29.78 in NW 9.0 mph 18.0 mph 71 % 0.00 in
12:51 83.3 °F 72.1 °F 29.77 in WNW 12.0 mph 18.0 mph 69 % 0.00 in
12:56 83.1 °F 72.3 °F 29.77 in NW 6.0 mph 18.0 mph 70 % 0.00 in
13:01 83.5 °F 71.8 °F 29.77 in NNW 10.0 mph 19.0 mph 68 % 0.00 in
13:06 83.1 °F 72.0 °F 29.77 in NW 11.0 mph 20.0 mph 69 % 0.00 in
13:11 83.7 °F 72.3 °F 29.77 in West 14.0 mph 20.0 mph 69 % 0.00 in
13:16 83.7 °F 72.9 °F 29.77 in NW 8.0 mph 20.0 mph 70 % 0.00 in
13:21 83.7 °F 72.3 °F 29.78 in NW 11.0 mph 20.0 mph 69 % 0.00 in
13:26 82.9 °F 71.8 °F 29.78 in WNW 8.0 mph 20.0 mph 69 % 0.00 in
13:27 82.9 °F 71.8 °F 29.78 in WNW 14.0 mph 20.0 mph 69 % 0.00 in
13:32 82.8 °F 72.0 °F 29.78 in WNW 5.0 mph 23.0 mph 70 % 0.00 in
13:37 83.5 °F 72.3 °F 29.78 in WNW 7.0 mph 23.0 mph 69 % 0.00 in
13:42 83.5 °F 72.7 °F 29.78 in West 4.0 mph 23.0 mph 70 % 0.00 in
13:47 83.7 °F 72.0 °F 29.78 in North 7.0 mph 15.0 mph 68 % 0.00 in
13:52 83.8 °F 72.1 °F 29.78 in NW 8.0 mph 16.0 mph 68 % 0.00 in
13:57 84.0 °F 72.3 °F 29.78 in NW 10.0 mph 16.0 mph 68 % 0.00 in
14:02 83.8 °F 72.1 °F 29.77 in NW 4.0 mph 16.0 mph 68 % 0.00 in
14:07 83.8 °F 71.8 °F 29.78 in NNW 11.0 mph 14.0 mph 67 % 0.00 in
14:12 83.5 °F 71.4 °F 29.78 in NW 8.0 mph 14.0 mph 67 % 0.00 in
14:17 83.1 °F 71.4 °F 29.78 in North 5.0 mph 16.0 mph 68 % 0.00 in
14:22 83.1 °F 71.4 °F 29.77 in NW 7.0 mph 16.0 mph 68 % 0.00 in
14:27 83.7 °F 72.0 °F 29.78 in NNW 10.0 mph 16.0 mph 68 % 0.00 in
14:32 84.0 °F 72.0 °F 29.77 in NW 12.0 mph 20.0 mph 67 % 0.00 in
14:38 84.6 °F 72.3 °F 29.77 in WNW 8.0 mph 20.0 mph 67 % 0.00 in
14:43 84.4 °F 71.8 °F 29.77 in NNW 14.0 mph 20.0 mph 66 % 0.00 in
14:48 84.2 °F 72.0 °F 29.77 in North 7.0 mph 17.0 mph 67 % 0.00 in
14:53 84.0 °F 72.0 °F 29.77 in NW 11.0 mph 15.0 mph 67 % 0.00 in
14:58 84.0 °F 72.3 °F 29.77 in WNW 1.0 mph 16.0 mph 68 % 0.00 in
15:03 84.2 °F 72.0 °F 29.77 in WNW 4.0 mph 16.0 mph 67 % 0.00 in
15:08 84.7 °F 72.5 °F 29.76 in WNW 8.0 mph 16.0 mph 67 % 0.00 in
15:09 84.7 °F 72.5 °F 29.76 in NW 8.0 mph 16.0 mph 67 % 0.00 in
15:14 85.3 °F 73.6 °F 29.76 in NW 4.0 mph 16.0 mph 68 % 0.00 in
15:19 85.3 °F 72.1 °F 29.76 in WNW 9.0 mph 16.0 mph 65 % 0.00 in
15:24 85.8 °F 72.7 °F 29.76 in NW 5.0 mph 18.0 mph 65 % 0.00 in
15:29 86.2 °F 73.0 °F 29.76 in ESE 5.0 mph 18.0 mph 65 % 0.00 in
15:34 86.2 °F 72.5 °F 29.77 in NNW 7.0 mph 18.0 mph 64 % 0.00 in
15:39 85.6 °F 71.6 °F 29.76 in WNW 11.0 mph 17.0 mph 63 % 0.00 in
15:44 85.3 °F 72.1 °F 29.77 in WNW 12.0 mph 21.0 mph 65 % 0.00 in
15:49 84.7 °F 71.6 °F 29.76 in WNW 8.0 mph 21.0 mph 65 % 0.00 in
15:54 84.4 °F 71.8 °F 29.77 in NW 8.0 mph 21.0 mph 66 % 0.00 in
15:59 84.6 °F 72.0 °F 29.76 in NW 4.0 mph 20.0 mph 66 % 0.00 in
16:04 84.4 °F 71.8 °F 29.77 in NNW 10.0 mph 20.0 mph 66 % 0.00 in
16:09 84.4 °F 71.8 °F 29.77 in NW 9.0 mph 17.0 mph 66 % 0.00 in
16:14 84.0 °F 72.0 °F 29.77 in NW 6.0 mph 16.0 mph 67 % 0.00 in
16:19 84.0 °F 72.0 °F 29.77 in NW 8.0 mph 16.0 mph 67 % 0.00 in
16:24 84.0 °F 71.1 °F 29.77 in NNW 4.0 mph 16.0 mph 65 % 0.00 in
16:29 83.8 °F 71.2 °F 29.77 in NW 7.0 mph 15.0 mph 66 % 0.00 in
16:34 83.8 °F 71.8 °F 29.77 in NNW 4.0 mph 15.0 mph 67 % 0.00 in
16:39 84.4 °F 71.8 °F 29.77 in NW 4.0 mph 15.0 mph 66 % 0.00 in
16:44 84.4 °F 72.1 °F 29.76 in NW 9.0 mph 15.0 mph 67 % 0.00 in
16:49 84.6 °F 72.3 °F 29.77 in WNW 2.0 mph 12.0 mph 67 % 0.00 in
16:54 84.7 °F 71.6 °F 29.77 in NNW 4.0 mph 12.0 mph 65 % 0.00 in
16:59 84.6 °F 71.4 °F 29.77 in NNW 3.0 mph 12.0 mph 65 % 0.00 in
17:04 84.6 °F 72.0 °F 29.77 in WNW 7.0 mph 14.0 mph 66 % 0.00 in
17:09 84.6 °F 71.4 °F 29.77 in NW 8.0 mph 14.0 mph 65 % 0.00 in
17:14 84.7 °F 71.6 °F 29.77 in NNW 2.0 mph 14.0 mph 65 % 0.00 in
17:19 84.7 °F 71.6 °F 29.77 in NW 6.0 mph 14.0 mph 65 % 0.00 in
17:24 84.6 °F 71.1 °F 29.77 in NW 6.0 mph 14.0 mph 64 % 0.00 in
17:30 84.6 °F 72.0 °F 29.78 in NW 6.0 mph 14.0 mph 66 % 0.00 in
17:35 84.6 °F 72.0 °F 29.78 in NW 5.0 mph 12.0 mph 66 % 0.00 in
17:40 84.6 °F 72.0 °F 29.78 in NNW 4.0 mph 12.0 mph 66 % 0.00 in
17:45 84.4 °F 71.8 °F 29.78 in WNW 5.0 mph 11.0 mph 66 % 0.00 in
17:50 84.4 °F 71.2 °F 29.78 in WNW 8.0 mph 10.0 mph 65 % 0.00 in
17:55 84.4 °F 71.8 °F 29.78 in NW 2.0 mph 14.0 mph 66 % 0.00 in
18:00 84.4 °F 71.2 °F 29.78 in NW 7.0 mph 14.0 mph 65 % 0.00 in
18:05 84.4 °F 70.9 °F 29.78 in WNW 5.0 mph 14.0 mph 64 % 0.00 in
18:10 84.4 °F 71.2 °F 29.78 in North 6.0 mph 13.0 mph 65 % 0.00 in
18:15 84.0 °F 71.1 °F 29.78 in NNW 4.0 mph 13.0 mph 65 % 0.00 in
18:20 83.8 °F 70.9 °F 29.78 in NW 8.0 mph 12.0 mph 65 % 0.00 in
18:25 83.8 °F 71.2 °F 29.78 in WNW 2.0 mph 14.0 mph 66 % 0.00 in
18:30 83.7 °F 71.1 °F 29.78 in NW 5.0 mph 14.0 mph 66 % 0.00 in
18:35 83.7 °F 71.1 °F 29.78 in NW 3.0 mph 10.0 mph 66 % 0.00 in
18:40 83.7 °F 71.6 °F 29.78 in West 1.0 mph 9.0 mph 67 % 0.00 in
18:45 83.7 °F 71.1 °F 29.78 in WNW 4.0 mph 10.0 mph 66 % 0.00 in
18:50 83.7 °F 71.1 °F 29.78 in WNW 4.0 mph 10.0 mph 66 % 0.00 in
18:55 83.8 °F 71.2 °F 29.78 in WNW 6.0 mph 10.0 mph 66 % 0.00 in
19:00 83.8 °F 71.2 °F 29.78 in NW 2.0 mph 6.0 mph 66 % 0.00 in
19:05 83.7 °F 71.1 °F 29.79 in NNW 3.0 mph 8.0 mph 66 % 0.00 in
19:10 83.7 °F 71.1 °F 29.79 in NW 3.0 mph 9.0 mph 66 % 0.00 in
19:15 83.5 °F 71.4 °F 29.79 in NW 4.0 mph 9.0 mph 67 % 0.00 in
19:20 83.1 °F 71.1 °F 29.79 in North 5.0 mph 9.0 mph 67 % 0.00 in
19:25 83.1 °F 71.1 °F 29.79 in NNW 2.0 mph 8.0 mph 67 % 0.00 in
19:30 82.9 °F 71.2 °F 29.79 in NNW 2.0 mph 8.0 mph 68 % 0.00 in
19:35 82.9 °F 71.2 °F 29.80 in WNW 3.0 mph 11.0 mph 68 % 0.00 in
19:40 82.8 °F 71.1 °F 29.80 in NNW 4.0 mph 11.0 mph 68 % 0.00 in
19:45 82.6 °F 70.9 °F 29.79 in NNW 6.0 mph 11.0 mph 68 % 0.00 in
19:50 82.6 °F 70.9 °F 29.80 in NW 1.0 mph 10.0 mph 68 % 0.00 in
19:55 82.2 °F 70.5 °F 29.80 in NW 4.0 mph 10.0 mph 68 % 0.00 in
20:00 82.2 °F 71.1 °F 29.80 in West 1.0 mph 10.0 mph 69 % 0.00 in
20:05 82.0 °F 70.9 °F 29.80 in NW 4.0 mph 10.0 mph 69 % 0.00 in
20:10 81.9 °F 70.7 °F 29.80 in NNW 6.0 mph 10.0 mph 69 % 0.00 in
20:15 81.9 °F 71.1 °F 29.81 in NW 4.0 mph 7.0 mph 70 % 0.00 in
20:20 81.7 °F 70.9 °F 29.81 in West 1.0 mph 7.0 mph 70 % 0.00 in
20:25 81.7 °F 70.9 °F 29.81 in North 1.0 mph 7.0 mph 70 % 0.00 in
20:30 81.5 °F 71.2 °F 29.81 in North 4.0 mph 6.0 mph 71 % 0.00 in
20:35 81.3 °F 71.1 °F 29.81 in WNW 2.0 mph 5.0 mph 71 % 0.00 in
20:40 81.1 °F 70.9 °F 29.81 in NW 1.0 mph 5.0 mph 71 % 0.00 in
20:45 81.1 °F 71.2 °F 29.81 in NW 3.0 mph 5.0 mph 72 % 0.00 in
20:50 81.0 °F 71.1 °F 29.82 in SW 1.0 mph 5.0 mph 72 % 0.00 in
20:55 81.0 °F 71.1 °F 29.82 in NW 1.0 mph 5.0 mph 72 % 0.00 in
21:00 80.8 °F 70.9 °F 29.82 in NW 2.0 mph 6.0 mph 72 % 0.00 in
21:05 80.8 °F 70.9 °F 29.82 in NW 2.0 mph 8.0 mph 72 % 0.00 in
21:10 80.8 °F 70.9 °F 29.82 in NW 3.0 mph 8.0 mph 72 % 0.00 in
21:16 80.8 °F 70.9 °F 29.82 in WSW 1.0 mph 8.0 mph 72 % 0.00 in
21:21 80.4 °F 70.9 °F 29.82 in Calm   5.0 mph 73 % 0.00 in
21:26 80.4 °F 70.9 °F 29.83 in WNW 2.0 mph 8.0 mph 73 % 0.00 in
21:31 80.2 °F 70.9 °F 29.83 in WNW 6.0 mph 8.0 mph 73 % 0.00 in
21:36 80.2 °F 70.9 °F 29.83 in NNE 7.0 mph 8.0 mph 73 % 0.00 in
21:41 80.2 °F 70.3 °F 29.83 in NNW 1.0 mph 8.0 mph 72 % 0.00 in
21:46 80.2 °F 70.3 °F 29.83 in NW 6.0 mph 8.0 mph 72 % 0.00 in
21:51 80.1 °F 70.2 °F 29.83 in NNW 3.0 mph 8.0 mph 72 % 0.00 in
21:56 80.1 °F 70.2 °F 29.84 in NW 4.0 mph 8.0 mph 72 % 0.00 in
22:01 80.1 °F 70.7 °F 29.83 in Calm   8.0 mph 73 % 0.00 in
22:06 79.9 °F 70.5 °F 29.83 in WNW 4.0 mph 8.0 mph 73 % 0.00 in
22:11 79.9 °F 70.5 °F 29.84 in NNW 2.0 mph 8.0 mph 73 % 0.00 in
22:17 79.5 °F 70.2 °F 29.84 in Calm   8.0 mph 73 % 0.00 in
22:22 79.3 °F 70.3 °F 29.84 in WNW 1.0 mph 7.0 mph 74 % 0.00 in
22:24 79.3 °F 70.3 °F 29.84 in WNW 1.0 mph 7.0 mph 74 % 0.00 in
22:26 79.3 °F 70.3 °F 29.84 in WNW 2.0 mph 6.0 mph 74 % 0.00 in
22:31 79.2 °F 70.5 °F 29.85 in North 1.0 mph 4.0 mph 75 % 0.00 in
22:36 79.0 °F 70.3 °F 29.84 in West 1.0 mph 4.0 mph 75 % 0.00 in
22:41 79.0 °F 70.3 °F 29.84 in Calm   5.0 mph 75 % 0.00 in
22:51 78.8 °F 70.2 °F 29.84 in NW 3.0 mph 5.0 mph 75 % 0.00 in
22:56 78.6 °F 70.3 °F 29.84 in NW 1.0 mph 3.0 mph 76 % 0.00 in
23:01 78.6 °F 70.3 °F 29.84 in NNW 1.0 mph 5.0 mph 76 % 0.00 in
23:06 78.6 °F 70.3 °F 29.85 in WSW 1.0 mph 5.0 mph 76 % 0.00 in
23:11 78.4 °F 70.2 °F 29.85 in Calm   5.0 mph 76 % 0.00 in
23:16 78.3 °F 70.0 °F 29.84 in Calm   5.0 mph 76 % 0.00 in
23:21 78.1 °F 70.3 °F 29.84 in Calm   5.0 mph 77 % 0.00 in
23:26 78.1 °F 70.3 °F 29.85 in West 2.0 mph 4.0 mph 77 % 0.00 in
23:31 78.3 °F 70.0 °F 29.85 in Calm   4.0 mph 76 % 0.00 in
23:36 78.3 °F 70.0 °F 29.84 in Calm   5.0 mph 76 % 0.00 in
23:41 78.3 °F 70.0 °F 29.85 in WNW 1.0 mph 5.0 mph 76 % 0.00 in
23:46 78.3 °F 70.0 °F 29.85 in Calm   5.0 mph 76 % 0.00 in
23:51 78.3 °F 70.0 °F 29.84 in NW 2.0 mph 4.0 mph 76 % 0.00 in
23:56 78.3 °F 69.6 °F 29.84 in WNW 3.0 mph 4.0 mph 75 % 0.00 in
Spring, Texas: Villages of Bridgestone
Compliments of Weather Underground - 2.75 mb

Script developed by  Jim McMurry - jmcmurry@mwt.net Adapted for the template by  Wim van der Kuil - Leuven-Template.eu

You find our weather info also at:

UK Metoffice

WeatherCloud

Weather Underground

Mid-South Weather Network

AWEKAS

Citizen Weather Observer Program (CWOP)

HAMweather, WeatherForYou, PWS Weather

Equipment we use:

Weather-station
Davis Vantage Vue

Weather-program
Meteohub

Weather-server
Debian 7.9 x86 (Guest)

Provider
DreamHost

Davis Vantage Vue

Meteohub

Debian 7.9 x86 (Guest)

DreamHost